UPS2919 KONT-KDFW

Flight info

Callsign UPS2919
Flight time 2h 30m
Altitude 35000
Route RAJEE4 MTBAL CNERY BLH J169 TFD J50 SSO J4 INK GEEKY BOOVE7
Aircraft A306/H-SDE3FGHIRWY/LB1

Departure

Time 2026-05-08 21:17
Airport Ontario International Airport (KONT)

Arrival

Time 2026-05-08 23:47
Airport Dallas Fort Worth International Airport (KDFW)
Time Latitude Longitude Altitude Speed Heading
2026-05-08 20:40 34.05217 -117.60088 950 ft 0 kts 90°
2026-05-08 20:56 34.05216 -117.60115 950 ft 3 kts 89°
2026-05-08 20:56 34.05214 -117.60141 950 ft 4 kts 54°
2026-05-08 20:56 34.05196 -117.60157 947 ft 4 kts
2026-05-08 20:56 34.05181 -117.60159 949 ft 1 kts
2026-05-08 21:05 34.05212 -117.60158 950 ft 6 kts
2026-05-08 21:05 34.05253 -117.60164 950 ft 8 kts 342°
2026-05-08 21:05 34.05298 -117.60214 950 ft 9 kts 315°
2026-05-08 21:05 34.05349 -117.60248 950 ft 9 kts 348°
2026-05-08 21:06 34.05374 -117.60240 950 ft 2 kts 39°
2026-05-08 21:06 34.05387 -117.60176 950 ft 15 kts 89°
2026-05-08 21:06 34.05386 -117.60034 950 ft 16 kts 90°
2026-05-08 21:06 34.05386 -117.59903 950 ft 15 kts 90°
2026-05-08 21:07 34.05385 -117.59786 951 ft 13 kts 90°
2026-05-08 21:07 34.05386 -117.59683 951 ft 14 kts 89°
2026-05-08 21:07 34.05387 -117.59532 951 ft 21 kts 90°
2026-05-08 21:07 34.05387 -117.59363 950 ft 19 kts 90°
2026-05-08 21:08 34.05388 -117.59209 951 ft 17 kts 89°
2026-05-08 21:08 34.05387 -117.59070 950 ft 16 kts 90°
2026-05-08 21:08 34.05387 -117.58942 950 ft 15 kts 90°
2026-05-08 21:08 34.05387 -117.58792 950 ft 22 kts 90°
2026-05-08 21:09 34.05387 -117.58599 950 ft 22 kts 90°
2026-05-08 21:09 34.05387 -117.58418 950 ft 21 kts 90°
2026-05-08 21:09 34.05395 -117.58296 950 ft 6 kts 57°
2026-05-08 21:09 34.05400 -117.58290 949 ft 0 kts 44°
2026-05-08 21:15 34.05407 -117.58284 949 ft 5 kts 37°
2026-05-08 21:15 34.05462 -117.58279 950 ft 10 kts 338°
2026-05-08 21:15 34.05491 -117.58319 950 ft 7 kts 295°
2026-05-08 21:15 34.05498 -117.58377 950 ft 10 kts 270°
2026-05-08 21:16 34.05498 -117.58592 949 ft 50 kts 270°
2026-05-08 21:16 34.05497 -117.59273 949 ft 111 kts 270°
2026-05-08 21:16 34.05495 -117.60423 950 ft 163 kts 267°
2026-05-08 21:16 34.05467 -117.61855 1452 ft 176 kts 268°
2026-05-08 21:17 34.05327 -117.63295 2288 ft 178 kts 250°
2026-05-08 21:17 34.04424 -117.64443 2542 ft 209 kts 205°
2026-05-08 21:17 34.02889 -117.64613 2797 ft 243 kts 168°
2026-05-08 21:17 34.01388 -117.63527 3237 ft 264 kts 133°
2026-05-08 21:18 34.00189 -117.61821 3988 ft 267 kts 132°
2026-05-08 21:18 33.98925 -117.60130 4420 ft 275 kts 134°
2026-05-08 21:18 33.97586 -117.58481 4372 ft 276 kts 137°
2026-05-08 21:18 33.96143 -117.56960 4285 ft 275 kts 141°
2026-05-08 21:19 33.94644 -117.55531 4387 ft 277 kts 143°
2026-05-08 21:19 33.93123 -117.54109 4367 ft 275 kts 143°
2026-05-08 21:19 33.91591 -117.52722 4413 ft 275 kts 145°
2026-05-08 21:19 33.90020 -117.51395 4696 ft 277 kts 146°
2026-05-08 21:20 33.88409 -117.50075 5270 ft 283 kts 147°
2026-05-08 21:20 33.86795 -117.48763 6105 ft 284 kts 147°
2026-05-08 21:20 33.85145 -117.47411 6576 ft 284 kts 146°
2026-05-08 21:20 33.83534 -117.46061 6853 ft 287 kts 146°
2026-05-08 21:21 33.81900 -117.44675 6894 ft 287 kts 146°
2026-05-08 21:21 33.80265 -117.43286 6889 ft 289 kts 145°
2026-05-08 21:21 33.78621 -117.41896 6850 ft 289 kts 146°
2026-05-08 21:21 33.76963 -117.40502 7192 ft 292 kts 146°
2026-05-08 21:22 33.75277 -117.39093 7855 ft 298 kts 146°
2026-05-08 21:22 33.73582 -117.37664 8819 ft 295 kts 145°
2026-05-08 21:22 33.71993 -117.36115 9786 ft 295 kts 133°
2026-05-08 21:22 33.70953 -117.33989 10425 ft 304 kts 107°
2026-05-08 21:23 33.70553 -117.31419 10749 ft 323 kts 96°
2026-05-08 21:23 33.70322 -117.28660 11039 ft 340 kts 95°
2026-05-08 21:23 33.70089 -117.25763 11323 ft 357 kts 95°
2026-05-08 21:23 33.69829 -117.22741 11598 ft 372 kts 96°
2026-05-08 21:24 33.69543 -117.19589 11871 ft 385 kts 96°
2026-05-08 21:24 33.69242 -117.16361 12309 ft 392 kts 96°
2026-05-08 21:24 33.68933 -117.13086 12841 ft 396 kts 96°
2026-05-08 21:24 33.68619 -117.09783 13390 ft 400 kts 96°
2026-05-08 21:25 33.68304 -117.06483 13948 ft 403 kts 95°
2026-05-08 21:25 33.67980 -117.03127 14442 ft 406 kts 96°
2026-05-08 21:25 33.67651 -116.99739 14973 ft 409 kts 96°
2026-05-08 21:25 33.67320 -116.96327 15497 ft 412 kts 96°
2026-05-08 21:26 33.66984 -116.92893 16006 ft 415 kts 96°
2026-05-08 21:26 33.66646 -116.89441 16502 ft 419 kts 96°
2026-05-08 21:26 33.66306 -116.85957 17009 ft 421 kts 96°
2026-05-08 21:26 33.65961 -116.82451 17482 ft 424 kts 96°
2026-05-08 21:27 33.65613 -116.78921 17961 ft 427 kts 96°
2026-05-08 21:27 33.65263 -116.75368 18399 ft 430 kts 96°
2026-05-08 21:27 33.64910 -116.71781 18724 ft 433 kts 96°
2026-05-08 21:27 33.64554 -116.68176 19110 ft 436 kts 96°
2026-05-08 21:28 33.64197 -116.64556 19490 ft 438 kts 96°
2026-05-08 21:28 33.63836 -116.60914 19876 ft 441 kts 96°
2026-05-08 21:28 33.63474 -116.57300 20246 ft 443 kts 96°
2026-05-08 21:28 33.63106 -116.53609 20619 ft 445 kts 96°
2026-05-08 21:29 33.62736 -116.49913 21003 ft 447 kts 96°
2026-05-08 21:29 33.62363 -116.46191 21378 ft 450 kts 96°
2026-05-08 21:29 33.61988 -116.42458 21744 ft 452 kts 96°
2026-05-08 21:29 33.61607 -116.38696 22076 ft 455 kts 96°
2026-05-08 21:30 33.61237 -116.34965 22432 ft 457 kts 95°
2026-05-08 21:30 33.61032 -116.31156 22789 ft 459 kts 91°
2026-05-08 21:30 33.60926 -116.27322 23146 ft 461 kts 91°
2026-05-08 21:30 33.60834 -116.23467 23493 ft 463 kts 91°
2026-05-08 21:31 33.60738 -116.19599 23769 ft 465 kts 91°
2026-05-08 21:31 33.60639 -116.15707 24056 ft 468 kts 91°
2026-05-08 21:31 33.60537 -116.11798 24347 ft 470 kts 91°
2026-05-08 21:31 33.60432 -116.07879 24626 ft 472 kts 91°
2026-05-08 21:32 33.60339 -116.03937 24899 ft 474 kts 90°
2026-05-08 21:32 33.60368 -115.99970 25169 ft 475 kts 88°
2026-05-08 21:32 33.60487 -115.96004 25438 ft 477 kts 86°
2026-05-08 21:32 33.60643 -115.92021 25700 ft 479 kts 86°
2026-05-08 21:33 33.60808 -115.88026 25961 ft 481 kts 86°
2026-05-08 21:33 33.60965 -115.84013 26226 ft 483 kts 86°
2026-05-08 21:33 33.61111 -115.79983 26474 ft 485 kts 86°
2026-05-08 21:33 33.61245 -115.75931 26725 ft 486 kts 86°
2026-05-08 21:34 33.61370 -115.71925 27037 ft 486 kts 86°
2026-05-08 21:34 33.61491 -115.67873 27384 ft 486 kts 87°
2026-05-08 21:34 33.61611 -115.63826 27727 ft 485 kts 87°
2026-05-08 21:34 33.61731 -115.59780 28070 ft 485 kts 87°
2026-05-08 21:35 33.61784 -115.55743 28399 ft 485 kts 89°
2026-05-08 21:35 33.61730 -115.51694 28725 ft 485 kts 90°
2026-05-08 21:35 33.61621 -115.47649 29054 ft 485 kts 91°
2026-05-08 21:35 33.61492 -115.43610 29397 ft 484 kts 91°
2026-05-08 21:36 33.61364 -115.39566 29744 ft 484 kts 91°
2026-05-08 21:36 33.61243 -115.35525 30060 ft 484 kts 91°
2026-05-08 21:36 33.61129 -115.31486 30325 ft 484 kts 91°
2026-05-08 21:36 33.61022 -115.27451 30628 ft 484 kts 91°
2026-05-08 21:37 33.60952 -115.24780 30822 ft 484 kts 91°
2026-05-08 21:37 33.60816 -115.19449 31235 ft 482 kts 91°
2026-05-08 21:37 33.60712 -115.15426 31566 ft 481 kts 91°
2026-05-08 21:37 33.60606 -115.11416 31866 ft 480 kts 91°
2026-05-08 21:38 33.60534 -115.08715 32076 ft 479 kts 91°
2026-05-08 21:38 33.60427 -115.04774 32368 ft 479 kts 91°
2026-05-08 21:38 33.60317 -115.00783 32672 ft 478 kts 91°
2026-05-08 21:38 33.60206 -114.96800 32967 ft 477 kts 91°
2026-05-08 21:39 33.60093 -114.92820 33253 ft 476 kts 91°
2026-05-08 21:39 33.59980 -114.88850 33529 ft 476 kts 91°
2026-05-08 21:39 33.59866 -114.84873 33795 ft 476 kts 91°
2026-05-08 21:39 33.59751 -114.80913 34030 ft 475 kts 91°
2026-05-08 21:40 33.59634 -114.76985 34237 ft 475 kts 92°
2026-05-08 21:40 33.59421 -114.73029 34450 ft 475 kts 94°
2026-05-08 21:40 33.59103 -114.69079 34662 ft 475 kts 95°
2026-05-08 21:41 33.58351 -114.61204 34864 ft 475 kts 96°
2026-05-08 21:41 33.57969 -114.57275 34865 ft 475 kts 96°
2026-05-08 21:41 33.57228 -114.49403 34861 ft 475 kts 95°
2026-05-08 21:42 33.56510 -114.41528 34860 ft 475 kts 95°
2026-05-08 21:42 33.55794 -114.33654 34859 ft 475 kts 95°
2026-05-08 21:43 33.55071 -114.25763 34863 ft 476 kts 95°
2026-05-08 21:43 33.54348 -114.17927 34864 ft 476 kts 95°
2026-05-08 21:44 33.53612 -114.10028 34866 ft 477 kts 95°
2026-05-08 21:44 33.52873 -114.02119 34865 ft 477 kts 95°
2026-05-08 21:45 33.52125 -113.94193 34882 ft 478 kts 95°
2026-05-08 21:45 33.51372 -113.86283 34898 ft 478 kts 95°
2026-05-08 21:46 33.50620 -113.78422 34910 ft 478 kts 95°
2026-05-08 21:46 33.49859 -113.70518 34924 ft 477 kts 95°
2026-05-08 21:47 33.49091 -113.62608 34933 ft 477 kts 96°
2026-05-08 21:47 33.48320 -113.54715 34928 ft 477 kts 96°
2026-05-08 21:48 33.47544 -113.46822 34912 ft 477 kts 96°
2026-05-08 21:48 33.46756 -113.38934 34896 ft 477 kts 97°
2026-05-08 21:49 33.44918 -113.31371 34885 ft 478 kts 112°
2026-05-08 21:49 33.42199 -113.24104 34852 ft 479 kts 115°
2026-05-08 21:50 33.39326 -113.16908 34840 ft 479 kts 115°
2026-05-08 21:50 33.36446 -113.09723 34842 ft 479 kts 115°
2026-05-08 21:51 33.33578 -113.02518 34851 ft 479 kts 115°
2026-05-08 21:51 33.30721 -112.95319 34861 ft 479 kts 115°
2026-05-08 21:52 33.27877 -112.88165 34867 ft 479 kts 115°
2026-05-08 21:52 33.25005 -112.80957 34868 ft 480 kts 115°
2026-05-08 21:53 33.22127 -112.73753 34868 ft 480 kts 115°
2026-05-08 21:53 33.19248 -112.66563 34863 ft 480 kts 115°
2026-05-08 21:54 33.16364 -112.59372 34861 ft 480 kts 115°
2026-05-08 21:54 33.13473 -112.52180 34854 ft 481 kts 115°
2026-05-08 21:55 33.10575 -112.44985 34851 ft 481 kts 115°
2026-05-08 21:56 33.06237 -112.34248 34846 ft 481 kts 115°
2026-05-08 21:56 33.03329 -112.27066 34846 ft 481 kts 115°
2026-05-08 21:57 33.00416 -112.19882 34847 ft 481 kts 115°
2026-05-08 21:57 32.97492 -112.12691 34844 ft 482 kts 115°
2026-05-08 21:58 32.94568 -112.05515 34839 ft 481 kts 115°
2026-05-08 21:58 32.91638 -111.98341 34840 ft 481 kts 115°
2026-05-08 21:59 32.88842 -111.91151 34840 ft 480 kts 108°
2026-05-08 21:59 32.86929 -111.83555 34833 ft 479 kts 104°
2026-05-08 22:00 32.85214 -111.75876 34830 ft 479 kts 103°
2026-05-08 22:00 32.83535 -111.68203 34832 ft 479 kts 103°
2026-05-08 22:01 32.81839 -111.60542 34835 ft 479 kts 103°
2026-05-08 22:01 32.80126 -111.52887 34848 ft 479 kts 103°
2026-05-08 22:02 32.78416 -111.45283 34864 ft 479 kts 103°
2026-05-08 22:02 32.76690 -111.37631 34880 ft 479 kts 103°
2026-05-08 22:03 32.74960 -111.29985 34886 ft 479 kts 103°
2026-05-08 22:03 32.73223 -111.22327 34893 ft 480 kts 103°
2026-05-08 22:04 32.71481 -111.14669 34888 ft 480 kts 103°
2026-05-08 22:04 32.69732 -111.07005 34879 ft 480 kts 103°
2026-05-08 22:05 32.67993 -110.99411 34861 ft 480 kts 103°
2026-05-08 22:05 32.66233 -110.91743 34854 ft 480 kts 103°
2026-05-08 22:06 32.64468 -110.84084 34848 ft 480 kts 103°
2026-05-08 22:06 32.62699 -110.76426 34850 ft 481 kts 103°
2026-05-08 22:07 32.60939 -110.68833 34850 ft 480 kts 103°
2026-05-08 22:07 32.59163 -110.61189 34853 ft 481 kts 103°
2026-05-08 22:08 32.57379 -110.53540 34851 ft 481 kts 103°
2026-05-08 22:08 32.55594 -110.45906 34848 ft 481 kts 103°
2026-05-08 22:09 32.53800 -110.38264 34848 ft 481 kts 103°
2026-05-08 22:09 32.52004 -110.30628 34848 ft 481 kts 103°
2026-05-08 22:10 32.50216 -110.23044 34847 ft 480 kts 103°
2026-05-08 22:10 32.48413 -110.15425 34849 ft 480 kts 104°
2026-05-08 22:11 32.46607 -110.07817 34848 ft 479 kts 104°
2026-05-08 22:11 32.44795 -110.00212 34845 ft 479 kts 104°
2026-05-08 22:12 32.42984 -109.92627 34844 ft 478 kts 104°
2026-05-08 22:12 32.41170 -109.85051 34838 ft 478 kts 104°
2026-05-08 22:13 32.39360 -109.77516 34828 ft 478 kts 104°
2026-05-08 22:13 32.37538 -109.69952 34820 ft 478 kts 104°
2026-05-08 22:14 32.35710 -109.62382 34815 ft 478 kts 104°
2026-05-08 22:14 32.33878 -109.54824 34809 ft 478 kts 104°
2026-05-08 22:15 32.32041 -109.47257 34807 ft 478 kts 104°
2026-05-08 22:15 32.30199 -109.39701 34808 ft 478 kts 104°
2026-05-08 22:16 32.28352 -109.32140 34811 ft 478 kts 104°
2026-05-08 22:16 32.26836 -109.24561 34816 ft 476 kts 96°
2026-05-08 22:17 32.25986 -109.16790 34809 ft 476 kts 95°
2026-05-08 22:17 32.25257 -109.09018 34811 ft 476 kts 95°
2026-05-08 22:18 32.24535 -109.01242 34863 ft 476 kts 95°
2026-05-08 22:18 32.23802 -108.93527 34895 ft 476 kts 95°
2026-05-08 22:19 32.23048 -108.85749 34942 ft 476 kts 95°
2026-05-08 22:19 32.22287 -108.77980 34971 ft 476 kts 95°
2026-05-08 22:20 32.21522 -108.70200 34981 ft 477 kts 95°
2026-05-08 22:20 32.20751 -108.62420 34965 ft 477 kts 95°
2026-05-08 22:21 32.19977 -108.54628 34935 ft 477 kts 95°
2026-05-08 22:21 32.19198 -108.46848 34894 ft 477 kts 96°
2026-05-08 22:21 32.18805 -108.42957 34785 ft 477 kts 93°
2026-05-08 22:22 32.18411 -108.39082 34842 ft 473 kts 93°
2026-05-08 22:22 32.17632 -108.31412 34808 ft 469 kts 93°
2026-05-08 22:23 32.16861 -108.23821 34803 ft 469 kts 93°
2026-05-08 22:23 32.16078 -108.16170 34802 ft 469 kts 93°
2026-05-08 22:24 32.15289 -108.08528 34824 ft 469 kts 93°
2026-05-08 22:24 32.14628 -108.02160 34855 ft 470 kts 93°
2026-05-08 22:25 32.13829 -107.94516 34893 ft 469 kts 93°
2026-05-08 22:25 32.13026 -107.86871 34927 ft 469 kts 93°
2026-05-08 22:26 32.12219 -107.79244 34944 ft 468 kts 93°
2026-05-08 22:26 32.11409 -107.71621 34947 ft 467 kts 93°
2026-05-08 22:27 32.10595 -107.64005 34925 ft 467 kts 93°
2026-05-08 22:27 32.09784 -107.56452 34901 ft 467 kts 93°
2026-05-08 22:28 32.08962 -107.48851 34858 ft 466 kts 93°
2026-05-08 22:28 32.08137 -107.41264 34812 ft 466 kts 93°
2026-05-08 22:29 32.07308 -107.33687 34783 ft 465 kts 93°
2026-05-08 22:29 32.06477 -107.26128 34784 ft 465 kts 93°
2026-05-08 22:30 32.05641 -107.18566 34806 ft 464 kts 93°
2026-05-08 22:30 32.04803 -107.11018 34838 ft 464 kts 93°
2026-05-08 22:31 32.03964 -107.03520 34851 ft 464 kts 93°
2026-05-08 22:31 32.03114 -106.95962 34858 ft 464 kts 94°
2026-05-08 22:32 32.02261 -106.88418 34891 ft 464 kts 94°
2026-05-08 22:32 32.01405 -106.80875 34929 ft 464 kts 94°
2026-05-08 22:33 32.00543 -106.73334 34953 ft 464 kts 94°
2026-05-08 22:33 31.99678 -106.65802 34957 ft 464 kts 94°
2026-05-08 22:34 31.98810 -106.58275 34937 ft 464 kts 94°
2026-05-08 22:34 31.97940 -106.50793 34903 ft 464 kts 94°
2026-05-08 22:35 31.97061 -106.43258 34928 ft 464 kts 94°
2026-05-08 22:35 31.96178 -106.35730 34937 ft 464 kts 94°
2026-05-08 22:36 31.95326 -106.28194 34921 ft 463 kts 91°
2026-05-08 22:36 31.95063 -106.20642 34896 ft 461 kts 88°
2026-05-08 22:37 31.94934 -106.13098 34860 ft 461 kts 87°
2026-05-08 22:37 31.94827 -106.05600 34821 ft 461 kts 88°
2026-05-08 22:38 31.94709 -105.98045 34785 ft 462 kts 88°
2026-05-08 22:38 31.94578 -105.90475 34782 ft 462 kts 88°
2026-05-08 22:39 31.94443 -105.82900 34784 ft 463 kts 88°
2026-05-08 22:39 31.94301 -105.75319 34782 ft 463 kts 88°
2026-05-08 22:40 31.94152 -105.67730 34776 ft 464 kts 88°
2026-05-08 22:40 31.94001 -105.60176 34775 ft 465 kts 89°
2026-05-08 22:41 31.93846 -105.52564 34765 ft 465 kts 89°
2026-05-08 22:41 31.93685 -105.44943 34762 ft 466 kts 89°
2026-05-08 22:42 31.93519 -105.37297 34762 ft 467 kts 89°
2026-05-08 22:42 31.93352 -105.29645 34757 ft 468 kts 89°
2026-05-08 22:43 31.93192 -105.21983 34760 ft 468 kts 89°
2026-05-08 22:43 31.93030 -105.14313 34766 ft 469 kts 90°
2026-05-08 22:44 31.92861 -105.06636 34770 ft 469 kts 90°
2026-05-08 22:44 31.92687 -104.98946 34780 ft 470 kts 90°
2026-05-08 22:45 31.92507 -104.91248 34777 ft 470 kts 90°
2026-05-08 22:45 31.92325 -104.83544 34784 ft 471 kts 91°
2026-05-08 22:46 31.92137 -104.75874 34790 ft 472 kts 91°
2026-05-08 22:46 31.91941 -104.68138 34792 ft 473 kts 91°
2026-05-08 22:47 31.91741 -104.60384 34796 ft 474 kts 91°
2026-05-08 22:47 31.91537 -104.52614 34800 ft 475 kts 91°
2026-05-08 22:48 31.91327 -104.44822 34793 ft 476 kts 92°
2026-05-08 22:48 31.91114 -104.37074 34792 ft 476 kts 92°
2026-05-08 22:49 31.90893 -104.29262 34791 ft 477 kts 92°
2026-05-08 22:49 31.90555 -104.17530 34792 ft 479 kts 92°
2026-05-08 22:50 31.90324 -104.09736 34785 ft 480 kts 93°
2026-05-08 22:50 31.90085 -104.01876 34777 ft 481 kts 93°
2026-05-08 22:51 31.89842 -103.93994 34775 ft 482 kts 93°
2026-05-08 22:51 31.89593 -103.86105 34771 ft 483 kts 94°
2026-05-08 22:52 31.89339 -103.78186 34776 ft 484 kts 94°
2026-05-08 22:52 31.89079 -103.70259 34774 ft 485 kts 94°
2026-05-08 22:53 31.88815 -103.62357 34777 ft 486 kts 94°
2026-05-08 22:53 31.88544 -103.54390 34774 ft 488 kts 94°
2026-05-08 22:54 31.88267 -103.46390 34774 ft 489 kts 95°
2026-05-08 22:54 31.87985 -103.38374 34773 ft 491 kts 95°
2026-05-08 22:55 31.87698 -103.30399 34778 ft 492 kts 95°
2026-05-08 22:55 31.87839 -103.22339 34778 ft 497 kts 85°
2026-05-08 22:56 31.88843 -103.14276 34774 ft 499 kts 83°
2026-05-08 22:56 31.89909 -103.06201 34773 ft 500 kts 83°
2026-05-08 22:57 31.90979 -102.98103 34778 ft 501 kts 83°
2026-05-08 22:57 31.92049 -102.89980 34781 ft 503 kts 83°
2026-05-08 22:58 31.93116 -102.81837 34777 ft 504 kts 84°
2026-05-08 22:58 31.94181 -102.73664 34805 ft 505 kts 84°
2026-05-08 22:59 31.95244 -102.65472 34836 ft 507 kts 84°
2026-05-08 22:59 31.96304 -102.57255 34865 ft 508 kts 84°
2026-05-08 23:00 31.97361 -102.49021 34890 ft 509 kts 84°
2026-05-08 23:00 31.98410 -102.40811 34899 ft 510 kts 84°
2026-05-08 23:01 31.99461 -102.32535 34896 ft 511 kts 84°
2026-05-08 23:01 32.00506 -102.24261 34889 ft 511 kts 84°
2026-05-08 23:02 32.01549 -102.15967 34893 ft 512 kts 84°
2026-05-08 23:02 32.02586 -102.07669 34894 ft 513 kts 84°
2026-05-08 23:03 32.03623 -101.99324 34895 ft 513 kts 84°
2026-05-08 23:03 32.04648 -101.91033 34868 ft 514 kts 84°
2026-05-08 23:04 32.05674 -101.82691 34836 ft 514 kts 84°
2026-05-08 23:04 32.06696 -101.74330 34827 ft 515 kts 84°
2026-05-08 23:05 32.07715 -101.65945 34847 ft 516 kts 84°
2026-05-08 23:05 32.08728 -101.57563 34860 ft 516 kts 84°
2026-05-08 23:06 32.09737 -101.49171 34868 ft 517 kts 84°
2026-05-08 23:06 32.10740 -101.40775 34864 ft 517 kts 84°
2026-05-08 23:07 32.11739 -101.32370 34842 ft 518 kts 84°
2026-05-08 23:07 32.12239 -101.28163 34656 ft 520 kts 88°
2026-05-08 23:07 32.12730 -101.23991 34800 ft 522 kts 88°
2026-05-08 23:08 32.13732 -101.15429 34805 ft 532 kts 88°
2026-05-08 23:08 32.14750 -101.06700 34791 ft 542 kts 88°
2026-05-08 23:09 32.15783 -100.97799 34790 ft 549 kts 88°
2026-05-08 23:09 32.16818 -100.88847 34792 ft 550 kts 88°
2026-05-08 23:10 32.17838 -100.79956 34791 ft 549 kts 88°
2026-05-08 23:10 32.18857 -100.71007 34798 ft 549 kts 88°
2026-05-08 23:11 32.19705 -100.63519 34817 ft 549 kts 88°
2026-05-08 23:11 32.20706 -100.54632 34832 ft 549 kts 88°
2026-05-08 23:12 32.21706 -100.45690 34831 ft 549 kts 88°
2026-05-08 23:12 32.22698 -100.36750 34833 ft 549 kts 88°
2026-05-08 23:13 32.23685 -100.27806 34825 ft 549 kts 88°
2026-05-08 23:13 32.24665 -100.18861 34811 ft 549 kts 88°
2026-05-08 23:14 32.25637 -100.09929 34807 ft 548 kts 87°
2026-05-08 23:14 32.26599 -100.01039 34822 ft 548 kts 88°
2026-05-08 23:15 32.27559 -99.92107 34824 ft 547 kts 88°
2026-05-08 23:15 32.28282 -99.83186 34828 ft 544 kts 92°
2026-05-08 23:16 32.28735 -99.74266 34852 ft 543 kts 92°
2026-05-08 23:16 32.29191 -99.65369 34854 ft 542 kts 92°
2026-05-08 23:17 32.29651 -99.56466 34848 ft 542 kts 92°
2026-05-08 23:17 32.30107 -99.47563 34840 ft 542 kts 92°
2026-05-08 23:18 32.30555 -99.38725 34830 ft 542 kts 92°
2026-05-08 23:18 32.30999 -99.29821 34826 ft 542 kts 92°
2026-05-08 23:19 32.31440 -99.20898 34824 ft 542 kts 92°
2026-05-08 23:19 32.31873 -99.11993 34837 ft 543 kts 92°
2026-05-08 23:20 32.32300 -99.03069 34851 ft 543 kts 92°
2026-05-08 23:20 32.32719 -98.94216 34863 ft 542 kts 92°
2026-05-08 23:21 32.33138 -98.85320 34868 ft 543 kts 92°
2026-05-08 23:21 32.33552 -98.76396 34868 ft 543 kts 92°
2026-05-08 23:22 32.33960 -98.67462 34863 ft 544 kts 92°
2026-05-08 23:22 32.34363 -98.58512 34856 ft 545 kts 91°
2026-05-08 23:23 32.34760 -98.49556 34513 ft 543 kts 91°
2026-05-08 23:23 32.34955 -98.45100 33825 ft 543 kts 92°
2026-05-08 23:23 32.35148 -98.40643 33045 ft 543 kts 91°
2026-05-08 23:24 32.35338 -98.36232 32220 ft 544 kts 91°
2026-05-08 23:24 32.35528 -98.31778 31542 ft 539 kts 91°
2026-05-08 23:24 32.35713 -98.27399 30509 ft 529 kts 90°
2026-05-08 23:24 32.35892 -98.23070 29348 ft 523 kts 90°
2026-05-08 23:25 32.36066 -98.18813 28223 ft 513 kts 90°
2026-05-08 23:25 32.36235 -98.14632 27160 ft 504 kts 89°
2026-05-08 23:25 32.36400 -98.10528 26143 ft 495 kts 89°
2026-05-08 23:25 32.36560 -98.06495 25202 ft 486 kts 88°
2026-05-08 23:26 32.36715 -98.02537 24253 ft 478 kts 88°
2026-05-08 23:26 32.36867 -97.98643 23294 ft 470 kts 87°
2026-05-08 23:26 32.37016 -97.94804 22244 ft 462 kts 88°
2026-05-08 23:26 32.37163 -97.91037 21325 ft 455 kts 88°
2026-05-08 23:27 32.37308 -97.87334 20771 ft 442 kts 88°
2026-05-08 23:27 32.37447 -97.83807 20119 ft 429 kts 88°
2026-05-08 23:27 32.37584 -97.80280 19353 ft 420 kts 88°
2026-05-08 23:27 32.37715 -97.76912 18607 ft 412 kts 88°
2026-05-08 23:28 32.37846 -97.73506 17836 ft 408 kts 88°
2026-05-08 23:28 32.37972 -97.70199 17393 ft 405 kts 88°
2026-05-08 23:28 32.38100 -97.66887 17054 ft 400 kts 87°
2026-05-08 23:28 32.38549 -97.63656 16978 ft 398 kts 70°
2026-05-08 23:29 32.39831 -97.60789 16833 ft 393 kts 50°
2026-05-08 23:29 32.41682 -97.58423 16350 ft 390 kts 41°
2026-05-08 23:29 32.43631 -97.56245 16035 ft 382 kts 40°
2026-05-08 23:29 32.45571 -97.54086 15581 ft 380 kts 40°
2026-05-08 23:30 32.47492 -97.51930 15112 ft 379 kts 40°
2026-05-08 23:30 32.49391 -97.49782 14657 ft 377 kts 41°
2026-05-08 23:30 32.51276 -97.47639 14414 ft 371 kts 41°
2026-05-08 23:30 32.53119 -97.45537 14104 ft 365 kts 41°
2026-05-08 23:31 32.54916 -97.43484 13743 ft 362 kts 41°
2026-05-08 23:31 32.56744 -97.41394 13319 ft 360 kts 41°
2026-05-08 23:31 32.58538 -97.39341 12960 ft 357 kts 41°
2026-05-08 23:31 32.60279 -97.37347 12755 ft 348 kts 41°
2026-05-08 23:32 32.61996 -97.35375 12595 ft 338 kts 41°
2026-05-08 23:32 32.63665 -97.33460 12419 ft 329 kts 41°
2026-05-08 23:32 32.65285 -97.31600 12236 ft 320 kts 41°
2026-05-08 23:32 32.66867 -97.29783 12046 ft 314 kts 41°
2026-05-08 23:33 32.68400 -97.28021 11999 ft 298 kts 40°
2026-05-08 23:33 32.69849 -97.26352 11998 ft 284 kts 40°
2026-05-08 23:33 32.71260 -97.24731 12000 ft 282 kts 40°
2026-05-08 23:33 32.72669 -97.23114 12002 ft 282 kts 40°
2026-05-08 23:34 32.74079 -97.21495 12002 ft 282 kts 40°
2026-05-08 23:34 32.75486 -97.19877 11999 ft 282 kts 40°
2026-05-08 23:34 32.76915 -97.18283 12001 ft 280 kts 35°
2026-05-08 23:34 32.78562 -97.17118 12012 ft 272 kts 14°
2026-05-08 23:35 32.80380 -97.16687 11724 ft 264 kts 357°
2026-05-08 23:35 32.82204 -97.16632 11372 ft 260 kts 353°
2026-05-08 23:35 32.83979 -97.16633 11071 ft 257 kts 353°
2026-05-08 23:35 32.85761 -97.16634 10749 ft 256 kts 353°
2026-05-08 23:36 32.87545 -97.16628 10395 ft 255 kts 353°
2026-05-08 23:36 32.89316 -97.16615 10099 ft 253 kts 353°
2026-05-08 23:36 32.91074 -97.16598 9773 ft 252 kts 353°
2026-05-08 23:36 32.92824 -97.16581 9435 ft 251 kts 353°
2026-05-08 23:37 32.94565 -97.16564 9115 ft 249 kts 354°
2026-05-08 23:37 32.96297 -97.16546 8743 ft 250 kts 354°
2026-05-08 23:37 32.98032 -97.16526 8428 ft 247 kts 354°
2026-05-08 23:37 32.99745 -97.16507 8079 ft 245 kts 354°
2026-05-08 23:38 33.01444 -97.16488 7734 ft 244 kts 355°
2026-05-08 23:38 33.03135 -97.16469 7421 ft 242 kts 355°
2026-05-08 23:38 33.04809 -97.16450 7130 ft 240 kts 355°
2026-05-08 23:38 33.06465 -97.16430 6678 ft 236 kts 356°
2026-05-08 23:39 33.08109 -97.16411 6180 ft 235 kts 356°
2026-05-08 23:39 33.09735 -97.16394 5730 ft 232 kts 357°
2026-05-08 23:39 33.11358 -97.16376 5180 ft 233 kts 357°
2026-05-08 23:39 33.12978 -97.16359 4605 ft 233 kts 357°
2026-05-08 23:40 33.14555 -97.16600 4037 ft 233 kts 340°
2026-05-08 23:40 33.15964 -97.17522 3583 ft 233 kts 314°
2026-05-08 23:40 33.16807 -97.19127 3187 ft 229 kts 282°
2026-05-08 23:40 33.16772 -97.20957 3022 ft 219 kts 248°
2026-05-08 23:41 33.15966 -97.22452 3004 ft 214 kts 221°
2026-05-08 23:41 33.14667 -97.23229 3011 ft 210 kts 192°
2026-05-08 23:41 33.13218 -97.23475 3004 ft 210 kts 186°
2026-05-08 23:41 33.11760 -97.23645 3005 ft 211 kts 186°
2026-05-08 23:42 33.10300 -97.23820 3000 ft 210 kts 186°
2026-05-08 23:42 33.08848 -97.24007 3001 ft 210 kts 185°
2026-05-08 23:42 33.07387 -97.24133 2986 ft 210 kts 176°
2026-05-08 23:42 33.05978 -97.23698 2999 ft 211 kts 155°
2026-05-08 23:43 33.04770 -97.22706 2998 ft 212 kts 141°
2026-05-08 23:43 33.03697 -97.21549 2985 ft 206 kts 139°
2026-05-08 23:43 33.02690 -97.20436 2993 ft 188 kts 139°
2026-05-08 23:43 33.01775 -97.19461 2977 ft 165 kts 141°
2026-05-08 23:44 33.00954 -97.18607 2999 ft 153 kts 142°
2026-05-08 23:44 33.00142 -97.17776 2971 ft 155 kts 142°
2026-05-08 23:44 32.99320 -97.16944 2769 ft 155 kts 142°
2026-05-08 23:44 32.98504 -97.16100 2563 ft 156 kts 141°
2026-05-08 23:45 32.97690 -97.15258 2349 ft 155 kts 141°
2026-05-08 23:45 32.96874 -97.14417 2149 ft 155 kts 141°
2026-05-08 23:45 32.96067 -97.13584 1948 ft 154 kts 141°
2026-05-08 23:45 32.95260 -97.12751 1746 ft 153 kts 141°
2026-05-08 23:46 32.94456 -97.11921 1538 ft 154 kts 141°
2026-05-08 23:46 32.93653 -97.11091 1326 ft 154 kts 141°
2026-05-08 23:46 32.92836 -97.10245 1141 ft 155 kts 143°
2026-05-08 23:46 32.92036 -97.09418 931 ft 151 kts 141°
2026-05-08 23:47 32.91240 -97.08608 749 ft 152 kts 141°
2026-05-08 23:47 32.90451 -97.07774 638 ft 147 kts 140°
2026-05-08 23:47 32.89776 -97.07094 635 ft 97 kts 139°
2026-05-08 23:47 32.89447 -97.06760 626 ft 47 kts 139°
2026-05-08 23:48 32.89221 -97.06528 625 ft 39 kts 139°
2026-05-08 23:48 32.89107 -97.06335 622 ft 18 kts 73°
2026-05-08 23:48 32.89149 -97.06200 624 ft 16 kts 66°
2026-05-08 23:48 32.89183 -97.06095 631 ft 8 kts 99°
2026-05-08 23:49 32.89163 -97.06057 632 ft 6 kts 126°
2026-05-08 23:49 32.89080 -97.05964 622 ft 20 kts 139°
2026-05-08 23:49 32.89040 -97.05852 631 ft 10 kts 80°
2026-05-08 23:49 32.89111 -97.05797 630 ft 16 kts
2026-05-08 23:50 32.89213 -97.05795 634 ft 14 kts
2026-05-08 23:50 32.89312 -97.05794 629 ft 18 kts
2026-05-08 23:50 32.89454 -97.05793 628 ft 25 kts
2026-05-08 23:50 32.89620 -97.05792 628 ft 23 kts
2026-05-08 23:51 32.89777 -97.05791 628 ft 22 kts 360°
2026-05-08 23:51 32.89923 -97.05792 628 ft 21 kts 360°
2026-05-08 23:51 32.90063 -97.05791 631 ft 19 kts
2026-05-08 23:51 32.90193 -97.05791 635 ft 18 kts
2026-05-08 23:52 32.90318 -97.05790 628 ft 19 kts
2026-05-08 23:52 32.90464 -97.05788 629 ft 22 kts
2026-05-08 23:52 32.90615 -97.05788 628 ft 21 kts
2026-05-08 23:52 32.90756 -97.05787 628 ft 20 kts 360°
2026-05-08 23:53 32.90889 -97.05786 628 ft 18 kts
2026-05-08 23:53 32.91013 -97.05787 627 ft 17 kts
2026-05-08 23:53 32.91129 -97.05786 627 ft 16 kts
2026-05-08 23:53 32.91217 -97.05809 626 ft 9 kts 310°
2026-05-08 23:54 32.91241 -97.05859 635 ft 5 kts 307°
2026-05-08 23:54 32.91290 -97.05909 632 ft 10 kts 302°
2026-05-08 23:54 32.91295 -97.05952 631 ft 4 kts 271°
2026-05-08 23:55 32.91295 -97.05971 627 ft 0 kts 269°